Yakima, WA
on Wednesday, December 5, 2012

Wednesday
Previous Day Next Day
Daily Summary
 ActualAverageRecord
Temperature
Mean Temperature °F 30°F  
Max Temperature 53°F 38°F 58°F (1991)
Min Temperature 31°F 22°F 1°F (1984)
Degree Days
Heating Degree Days 23 35  
Month to date heating degree days 98 170  
Since 1 July heating degree days 1336 1703  
Cooling Degree Days 0 0  
Month to date cooling degree days 0 0  
Year to date cooling degree days 667 472  
Moisture
Dew Point 28°F   
Average Humidity 64    
Maximum Humidity 92    
Minimum Humidity 35    
Precipitation
Precipitation 0.00 in 0.05 in 0.35 in (1956)
Month to date precipitation 0.74 0.25  
Year to date precipitation 7.93 6.97  
Snow
Snow 0.00 in 0.30 in 4.50 in (1956)
Month to date snowfall 0.0 1.4  
Year to date snowfall 22.2 13.6  
Since 1 July snowfall 0.7 5.0  
Snow Depth 0.00 in   
Wind
Wind Speed 6 mph   
Max Wind Speed 25 mph   
Max Gust Speed 33 mph   
Visibility 10 miles   
Events     

Key: T is trace of precipitation, MM is missing value
Source: NWS Daily Summary
Time(PST)TemperatureDew PointHumidity Pressure Visibility Wind DirectionWind SpeedGust SpeedPrecipitationEvents Conditions
12:53 AM 39.9°F 37.9°F 93% 29.78 in 5.0 miles North 3.5 mph - N/A   Partly Cloudy
1:02 AM 42.8°F 39.2°F 87% 29.78 in 6.0 miles Calm Calm - N/A   Partly Cloudy
1:53 AM 39.0°F 37.0°F 93% 29.81 in 6.0 miles Calm Calm - N/A   Partly Cloudy
2:53 AM 39.0°F 36.0°F 89% 29.86 in 8.0 miles South 3.5 mph - N/A   Scattered Clouds
3:53 AM 42.1°F 32.0°F 67% 29.91 in 10.0 miles Calm Calm - N/A   Clear
4:53 AM 44.1°F 24.1°F 45% 29.95 in 10.0 miles WNW 20.7 mph 33.4 mph N/A   Clear
6:53 AM 42.1°F 23.0°F 47% 30.03 in 10.0 miles West 9.2 mph - N/A   Clear
7:53 AM 39.9°F 23.0°F 51% 30.06 in 10.0 miles WSW 8.1 mph - N/A   Clear
8:53 AM 44.1°F 24.1°F 45% 30.08 in 10.0 miles WSW 5.8 mph - N/A   Scattered Clouds
9:53 AM 48.0°F 24.1°F 39% 30.11 in 10.0 miles West 15.0 mph - N/A   Scattered Clouds
10:53 AM 48.0°F 26.1°F 42% 30.13 in 10.0 miles South 9.2 mph - N/A   Scattered Clouds
11:53 AM 50.0°F 26.1°F 39% 30.14 in 10.0 miles Variable 3.5 mph - N/A   Scattered Clouds
12:53 PM 53.1°F 26.1°F 35% 30.14 in 10.0 miles WNW 17.3 mph 23.0 mph N/A   Mostly Cloudy
1:53 PM 53.1°F 26.1°F 35% 30.14 in 10.0 miles WNW 12.7 mph - N/A   Mostly Cloudy
2:53 PM 48.9°F 26.1°F 41% 30.16 in 10.0 miles North 8.1 mph - N/A   Mostly Cloudy
3:53 PM 46.9°F 27.0°F 46% 30.17 in 10.0 miles NNE 6.9 mph - N/A   Mostly Cloudy
4:53 PM 45.0°F 27.0°F 49% 30.19 in 10.0 miles Calm Calm - N/A   Mostly Cloudy
5:53 PM 41.0°F 28.0°F 60% 30.21 in 10.0 miles Calm Calm - N/A   Overcast
6:53 PM 34.0°F 27.0°F 75% 30.21 in 10.0 miles West 5.8 mph - N/A   Clear
7:53 PM 37.0°F 27.0°F 67% 30.21 in 10.0 miles WSW 6.9 mph - N/A   Clear
8:53 PM 37.0°F 27.0°F 67% 30.21 in 10.0 miles WSW 5.8 mph - N/A   Clear
9:53 PM 36.0°F 27.0°F 70% 30.21 in 10.0 miles Calm Calm - N/A   Clear
10:53 PM 35.1°F 28.0°F 76% 30.20 in 10.0 miles Calm Calm - N/A   Clear
11:53 PM 33.1°F 27.0°F 78% 30.19 in 10.0 miles NW 3.5 mph - N/A   Clear
Moon Phase
Dec. 05 Dec. 06 Dec. 13 Dec. 20 Dec. 28
Sunrise:07:30 AM (PST) Moon Rise:11:29 PM (PST)12/5
Sunset:04:15 PM (PST) Moon Set:11:40 AM (PST)12/5

Copyright © 2014 The Weather Underground, Inc.